www.pogodaiklimat.ru

Погода и климат >> Архив погоды >> Россия >> Камчатский край >> Мыс Лопатка


ПОГОДА на Мысе Лопатка

  • Прогноз погоды на Мысе Лопатка
  • Монитор погоды на Мысе Лопатка
  • Климат города

АРХИВ ПОГОДЫ на Мысе Лопатка

Время (UTC), дата Ветер
(напр.,м/с)
 
Видим.   Явления Облачность Т
(С)
Тd
(С)
f
(%)
Тe
(С)
Тes
(С)
Комфортность P
(гПа)
Po
(гПа)
Тmin
(С)
Tmax
(С)
R
(мм)
R24
(мм)
S
(см)
15 8.12 ЮВ 15-17
{17}
4000 м слабый ливневой снег {метель} 9/9 300 м
[Cb cap]
-1.6 -2.5 94 -12 -12 1008.7 1002.4
18 8.12 ЮВ 18-23
{24}
500 м сильная метель {ливн. осадки} ?/? -0.6 -0.7 99 -11 -11 1001.4 995.1
21 8.12 ЮВ 21-26
{31}
4000 м слабый снег {метель} 10/10 300 м
[Frnb Ns]
+0.2 +0.1 99 -11 -11 993.8 987.6 -2.0 5 11
00 9.12 Ю 6
{28}
20 км в посл. час снег {метель} 9/9 600 м
[Sc]
+1.4 +1.3 99 -5 -5 992.2 986.0
03 9.12 ЮЗ 7-10
{12}
20 км 3/1 600 м
[Sc Ci fib]
+0.8 -3.7 72 -6 -5 990.2 984.0
06 9.12 ЮЗ 10-14
{14}
20 км 6/3 600 м
[Sc Ac trans Ci fib]
+0.4 -5.0 67 -7 -7 988.2 982.0
09 9.12 З 5
{15}
20 км 3/1 600 м
[Sc Ac trans Ci fib]
-0.5 -3.2 82 -7 -7 986.6 980.4 +1.5 0.3
12 9.12 З 3 20 км 8/3 600 м
[Sc Ac trans Ci sp]
-0.6 -4.1 77 -5 -5 984.7 978.5
15 9.12 З 2 20 км 8/3 600 м
[Sc Ac trans Ci sp]
-1.6 -4.2 82 -5 -5 982.8 976.6
18 9.12 З 9-11
{20}
20 км 10/4 600 м
[Sc Ci sp]
-0.3 -2.1 88 -8 -8 982.1 975.9
21 9.12 З 16-20
{21}
20 км позёмок {метель} 8/5 600 м
[Cb calv Ci sp]
-0.3 -1.5 92 -10 -10 981.7 975.5 -1.6 10
00 10.12 З 18-23
{23}
20 км в посл. час ливневой снег {метель} 8/3 600 м
[Cb calv Ci sp]
-0.3 -2.4 86 -11 -11 982.8 976.6
03 10.12 З 17-22
{24}
20 км 9/4 600 м
[Sc Ci sp]
+0.4 -2.3 82 -9 -9 984.1 983.4
06 10.12 З 15-19
{23}
20 км 9/3 600 м
[Sc Ac trans Ci sp]
+0.8 -2.2 80 -8 -8 985.7 979.5
09 10.12 СЗ 15-18
{19}
20 км 8/3 600 м
[Sc Ac trans Ci sp]
+0.4 -1.0 90 -9 -9 987.9 981.7 +0.9 0.0
12 10.12 СЗ 16-19
{19}
20 км {ливн. осадки} 6/6 600 м
[Sc]
+0.7 -1.2 87 -9 -9 990.4 984.2
15 10.12 СЗ 17-20
{22}
20 км 8/8 600 м
[Sc]
+0.7 -1.0 88 -9 -9 993.6 987.4
18 10.12 СЗ 19-23
{24}
4000 м слабый ливневой снег {метель} 9/9 300 м
[Cb cap]
+0.1 -0.6 95 -10 -10 995.9 989.7
21 10.12 СЗ 19-24
{24}
20 км {ливн. осадки, метель} 9/3 600 м
[Sc Ci sp]
+0.3 -0.4 95 -10 -10 999.3 993.1 -0.3 0.3 11
00 11.12 СЗ 19-22
{25}
20 км {ливн. осадки, метель} 9/3 600 м
[Sc Ac As Ci sp]
+0.5 -1.3 88 -10 -10 1003.4 997.1
03 11.12 СЗ 17-20
{23}
20 км 9/6 600 м
[Sc Ac trans Ci sp]
+0.5 -2.2 82 -9 -9 1006.7 1000.4
06 11.12 СЗ 16-20
{21}
20 км 9/5 600 м
[Sc Ac trans Ci sp]
+0.1 -2.2 84 -10 -10 1010.0 1003.7
09 11.12 СЗ 12-13
{20}
20 км 1/1 600 м
[Sc]
0.0 -2.9 81 -9 -9 1011.9 1005.5 +0.7
12 11.12 С 7
{14}
20 км 1/1 600 м
[Sc]
+0.2 -2.4 83 -7 -7 1014.1 1007.7
15 11.12 В 9-12
{14}
4000 м дымка 10/10 300 м
[St]
+0.9 +0.6 98 -7 -7 1014.4 1008.0
18 11.12 В 15-20
{20}
4000 м в посл. час ливневой дождь 9/9 300 м
[St]
+1.4 +1.1 98 -8 -8 1013.5 1007.1
21 11.12 В 19-24
{24}
20 км 9/9 300 м
[St]
+1.6 +0.9 95 -8 -8 1011.1 1004.9 -0.2 0.3 8
00 12.12 В 21-26
{27}
10 км слабый ливневой дождь со снегом {морось} 9/9 300 м
[Cb cap]
+1.1 +0.8 98 -9 -9 1008.8 1002.6
03 12.12 В 21-28
{28}
10 км слабый ливневой дождь 9/9 300 м
[Cb cap]
+1.6 +0.7 94 -9 -9 1004.2 997.9
06 12.12 В 22-27
{28}
10 км слабый ливневой дождь 9/9 300 м
[Cb cap]
+1.6 +0.8 94 -9 -9 1001.0 994.8
09 12.12 В 23-30
{33}
10 км слабый ливневой дождь 10/10 300 м
[]
+1.4 +0.6 94 -9 -9 994.7 988.5 +1.8 0.5
12 12.12 В 23-30
{34}
20 км {ливн. осадки} 10/10 300 м
[St]
+1.6 -0.4 87 -9 -9 989.1 982.9
15 12.12 В 23-30
{34}
20 км {ливн. осадки} 10/10 300 м
[St]
+1.3 -0.1 90 -9 -9 985.7 979.5
18 12.12 СВ 23-32
{32}
4000 м слабый ливневой снег 10/10 300 м
[Cb cap]
+0.9 -0.9 88 -10 -10 982.1 975.9
21 12.12 СВ 25-33
{34}
2000 м слабый ливневой снег 10/10 200 м
[Cb cap]
+0.1 -0.2 98 -12 -12 982.2 976.0 0.0 0.4 3
00 13.12 СВ 26-34
{34}
4000 м слабый ливневой снег 9/9 300 м
[Cb cap]
+0.2 -0.3 96 -11 -11 982.4 976.2
03 13.12 СВ 20-25
{35}
20 км {ливн. осадки} 9/3 600 м
[Sc Ac As]
+0.4 -1.4 88 -10 -10 983.9 977.7
06 13.12 С 11-17
{26}
20 км {ливн. осадки} 9/9 600 м
[Sc]
+1.3 -3.0 73 -7 -7 985.5 979.3
09 13.12 СВ 16-24
{24}
20 км 9/9 600 м
[Sc]
+1.2 -2.5 76 -8 -8 987.9 981.7 +1.8 0.0
12 13.12 СВ 7-10
{24}
20 км 10/10 600 м
[Sc]
+0.7 -3.6 73 -6 -6 990.1 983.9
15 13.12 СЗ 6
{10}
20 км 10/10 600 м
[Sc]
+0.4 -2.7 80 -6 -6 992.0 985.8
18 13.12 СЗ 7 20 км 9/9 600 м
[Sc]
+0.2 -2.8 80 -7 -7 993.1 986.9
21 13.12 ЮЗ 1 50 км 8/1 1000 м
[Sc Ci sp]
-0.1 -3.5 78 -2 -2 994.5 988.3 -0.5 2
00 14.12 СЗ 10-12
{13}
50 км 9/1 1000 м
[Sc Cs]
-0.1 -3.7 77 -8 -8 995.5 989.3
03 14.12 СЗ 9-11
{13}
50 км 9/1 600 м
[Sc Ac trans Ci sp]
-0.4 -3.6 79 -8 -8 995.7 989.5
06 14.12 СЗ 13-16
{21}
20 км 9/9 600 м
[Sc]
-1.9 -5.0 79 -11 -11 996.8 990.6
09 14.12 СЗ 14-17
{18}
20 км 10/10 600 м
[Sc]
-2.7 -6.0 78 -13 -13 998.2 992.0 0.0
12 14.12 С 15-20
{21}
20 км 10/10 600 м
[Sc]
-3.9 -6.2 84 -15 -15 999.8 993.4
15 14.12 СЗ 17-20
{24}
20 км 3/1 600 м
[Sc Ci fib]
-5.3 -8.2 80 -17 -17 1001.5 995.1
18 14.12 С 19-23
{23}
20 км 1/1 600 м
[Sc]
-5.9 -9.0 79 -18 -18 1002.1 995.7
21 14.12 С 15-20
{23}
50 км 1/1 600 м
[Sc]
-5.4 -9.3 74 -17 -17 1003.5 997.1 -6.1 2
00 15.12 СЗ 12-15
{20}
50 км 3/1 600 м
[Sc Ci fib]
-5.6 -9.9 72 -16 -16 1005.8 999.4
03 15.12 СЗ 8-10
{15}
50 км 4/1 600 м
[Sc Ac trans Ci fib]
-5.7 -8.8 79 -15 -14 1006.1 999.7
06 15.12 З 4
{10}
20 км 8/3 600 м
[Sc Ac trans Ci sp]
-5.8 -7.4 88 -12 -12 1006.8 1000.4
09 15.12 СЗ 3 2000 м ливневой снег 9/9 300 м
[Cb cap]
-5.0 -5.7 95 -11 -11 1007.2 1000.8 -4.6 0.5
12 15.12 СЗ 12-15
{16}
20 км позёмок {ливн. осадки, метель} 1/1 600 м
[Sc]
-4.1 -7.2 79 -14 -14 1007.4 1001.0

 

Местоположение метеостанции Мыс Лопатка (Камчатский край, Россия): широта 50.87 долгота 156.60 высота над уровнем моря 50 м.

В архиве по умолчанию представлена погода на Мысе Лопатка за последнюю неделю. Архивные данные за месяц целиком и за предыдущие месяцы, начиная с января 2011 года, Вы можете получить, выбрав интересующий диапазон дат из раскрывающегося списка и нажав кнопку "Ввод!".

Внимание! Время в таблицах - всемирное. Для получения местного времени необходимо прибавить поправку, которая на Мысе Лопатка равна 12 ч.

Смотрите также архив погоды в соседних городах и на ближайших метеорологических станциях:

Погода в Северо-Курильске (Сахалинская область, Россия) (41 км)
Погода в Озерной (Камчатский край, Россия) (69 км)
Погода в Водопадной (Камчатский край, Россия) (144 км)
Погода в Большерецке (Камчатский край, Россия) (219 км)
Погода в Начиках (Камчатский край, Россия) (261 км)
Погода в Петропавловск-Камчатском (Камчатский край, Россия) (261 км)
Погода в Петропавловском Маяке (Камчатский край, Россия) (266 км)
Погода в Сосновке (Камчатский край, Россия) (272 км)
Погода в Петропавловск-Камч. 2 (Камчатский край, Россия) (278 км)
Погода в Пущино (Камчатский край, Россия) (380 км)

Пояснения к столбцам:

Ветер - указаны скорость ветра в м/с - средняя за 10 мин, порывы в срок и между сроками (в фигурных скобках) и направление, откуда дует ветер: С - северный, СВ - северо-восточный, В - восточный, ЮВ - юго-восточный, Ю - южный, ЮЗ - юго-западный, З - западный, СЗ - северо-западный.
Видимость - горизонтальная дальность видимости в метрах или километрах. При видимости от 1 до 10 км при отсутствии осадков обычно наблюдается дымка, при ухудшении видимости до 1 км и менее - туман. В сухую погоду видимость может ухудшаться дымом, пылью или мглою.
Явления - указаны атмосферные явления, наблюдавшиеся в срок или в последний час перед сроком; фигурными скобками обозначены явления, наблюдавшиеся между сроками (за 1-3 часа до срока); квадратными скобками обозначены град или гололедные отложения с указанием их диаметра в мм.
Облачность - указаны через наклонную черту общая и нижняя облачность в баллах и высота нижней границы облаков в метрах; квадратными скобками обозначены формы облаков: Ci - перистые, Cs - перисто-слоистые, Cc - перисто-кучевые, Ac - высококучевые, As - высокослоистые, Sc - слоисто-кучевые, Ns - слоисто-дождевые, Cu - кучевые, Cb - кучево-дождевые. Подробнее классификацию облаков см. в Атласе облаков (PDF).
T - Температура воздуха - температура, измеренная на высоте 2 м над землей.
Td - Температура точки росы - температура, при понижении до которой содержащийся в воздухе водяной пар достигнет насыщения.
f - Относительная влажность воздуха - влажноcть воздуха, измеренная на высоте 2 м над землей.
Te - Эффективная температура - температура, которую ощущает одетый по сезону человек в тени. Характеристика душности погоды. При расчете учитывается влияние влажности воздуха и скорости ветра на теплоощущения человека.
Tes - Эффективная температура на солнце - температура, которую ощущает человек, с поправкой на солнечный нагрев. Характеристика знойности погоды. Зависит от высоты солнца над горизонтом, облачности и скорости ветра. Ночью, в пасмурную погоду, а также при ветре 12 м/с и более поправка равна нулю.
P - Атмосферное давление - приведенное к уровню моря атмосферное давление.
Po - Атмосферное давление - измеренное на уровне метеостанции атмосферное давление.
Tmin - Минимальная температура - минимум температуры воздуха на высоте 2 м над землей.
Tmax - Максимальная температура - максимум температуры воздуха на высоте 2 м над землей.
R - Количество осадков - Количество выпавших осадков за период времени, мм. При наведении курсора мыши на число - период времени, за который выпало указанное количество осадков.
R24 - Количество осадков - Количество выпавших осадков за 24 часа, мм.
S - Снежный покров - Высота снежного покрова, см. При наведении курсора мыши на число - состояние снежного покрова и степень покрытия местности в баллах.